Tiempo cada hora Aathal

Hoy, 24 Junio, Jueves

Tiempo Temperatura Precipitaciones Viento Presión Humedad
00:00 +15°C° 0.7 mm 1 mps 715 mmHg 97%
01:00 +15°C° 0.7 mm 1 mps 715 mmHg 97%
02:00 +15°C° 0.1 mm 1 mps 715 mmHg 96%
03:00 +14°C° 0.1 mm 1 mps 715 mmHg 96%
04:00 +13°C° 0.1 mm 0 mps 715 mmHg 96%
05:00 +14°C° 0.1 mm 0 mps 715 mmHg 94%
06:00 +15°C° 0.1 mm 0 mps 715 mmHg 93%
07:00 +15°C° 0.1 mm 0 mps 715 mmHg 91%
08:00 +17°C° 0.4 mm 0 mps 715 mmHg 86%
09:00 +20°C° 0.4 mm 1 mps 715 mmHg 81%
10:00 +21°C° 0.4 mm 1 mps 715 mmHg 77%
11:00 +22°C° 0.7 mm 1 mps 715 mmHg 76%
12:00 +22°C° 0.7 mm 1 mps 715 mmHg 75%
13:00 +23°C° 0.7 mm 1 mps 715 mmHg 75%
14:00 +22°C° 1.8 mm 1 mps 715 mmHg 79%
15:00 +20°C° 1.8 mm 2 mps 714 mmHg 84%
16:00 +19°C° 1.8 mm 2 mps 714 mmHg 89%
17:00 +17°C° 6.3 mm 3 mps 715 mmHg 92%
18:00 +16°C° 6.3 mm 3 mps 716 mmHg 94%
19:00 +13°C° 6.3 mm 4 mps 717 mmHg 97%
20:00 +13°C° 0.9 mm 3 mps 717 mmHg 96%
21:00 +13°C° 0.9 mm 2 mps 717 mmHg 95%
22:00 +13°C° 0.9 mm 1 mps 717 mmHg 94%
23:00 +13°C° 0.1 mm 1 mps 717 mmHg 94%

Mañana, 25 Junio, Viernes

Tiempo Temperatura Precipitaciones Viento Presión Humedad
00:00 +13°C° 0.1 mm 1 mps 717 mmHg 94%
01:00 +13°C° 0.1 mm 1 mps 717 mmHg 94%
02:00 +13°C° 0 mm 1 mps 717 mmHg 95%
03:00 +12°C° 0 mm 1 mps 716 mmHg 95%
04:00 +12°C° 0 mm 1 mps 716 mmHg 95%
05:00 +13°C° 0 mm 1 mps 717 mmHg 95%
06:00 +13°C° 0 mm 1 mps 717 mmHg 94%
07:00 +13°C° 0 mm 0 mps 717 mmHg 94%
08:00 +14°C° 0.1 mm 1 mps 717 mmHg 92%
09:00 +15°C° 0.1 mm 1 mps 717 mmHg 90%
10:00 +16°C° 0.1 mm 1 mps 717 mmHg 88%
11:00 +18°C° 0.1 mm 1 mps 716 mmHg 78%
12:00 +19°C° 0.1 mm 2 mps 716 mmHg 69%
13:00 +21°C° 0.1 mm 2 mps 716 mmHg 60%
14:00 +20°C° 0.3 mm 2 mps 716 mmHg 64%
15:00 +20°C° 0.3 mm 2 mps 716 mmHg 69%
16:00 +20°C° 0.3 mm 2 mps 716 mmHg 73%
17:00 +20°C° 0.4 mm 1 mps 716 mmHg 79%
18:00 +19°C° 0.4 mm 1 mps 716 mmHg 84%
19:00 +18°C° 0.4 mm 1 mps 716 mmHg 90%
20:00 +16°C° 0.1 mm 1 mps 716 mmHg 91%
21:00 +15°C° 0.1 mm 1 mps 716 mmHg 93%
22:00 +14°C° 0.1 mm 1 mps 716 mmHg 94%
23:00 +13°C° 0 mm 1 mps 716 mmHg 94%

Pasado mañana, 26 Junio, Sábado

Tiempo Temperatura Precipitaciones Viento Presión Humedad
00:00 +13°C° 0 mm 1 mps 716 mmHg 94%
01:00 +13°C° 0 mm 1 mps 716 mmHg 95%
02:00 +12°C° 0 mm 1 mps 716 mmHg 95%
03:00 +12°C° 0 mm 1 mps 716 mmHg 95%
04:00 +12°C° 0 mm 1 mps 715 mmHg 95%
05:00 +12°C° 0 mm 0 mps 716 mmHg 93%
06:00 +13°C° 0 mm 0 mps 716 mmHg 92%
07:00 +14°C° 0 mm 0 mps 716 mmHg 90%
08:00 +16°C° 0 mm 0 mps 716 mmHg 82%
09:00 +20°C° 0 mm 1 mps 716 mmHg 73%
10:00 +22°C° 0 mm 1 mps 716 mmHg 64%
11:00 +23°C° 0 mm 1 mps 715 mmHg 61%
12:00 +24°C° 0 mm 1 mps 715 mmHg 58%
13:00 +25°C° 0 mm 2 mps 715 mmHg 55%
14:00 +25°C° 0.1 mm 2 mps 715 mmHg 55%
15:00 +25°C° 0.1 mm 1 mps 715 mmHg 54%
16:00 +26°C° 0.1 mm 1 mps 715 mmHg 53%
17:00 +24°C° 0.1 mm 1 mps 715 mmHg 62%
18:00 +23°C° 0.1 mm 1 mps 714 mmHg 70%
19:00 +22°C° 0.1 mm 1 mps 714 mmHg 79%
20:00 +21°C° 0 mm 1 mps 714 mmHg 82%
21:00 +19°C° 0 mm 1 mps 714 mmHg 86%
22:00 +18°C° 0 mm 1 mps 714 mmHg 90%
23:00 +16°C° 0 mm 1 mps 714 mmHg 90%

27 Junio, Domingo

Tiempo Temperatura Precipitaciones Viento Presión Humedad
00:00 +16°C° 0 mm 1 mps 714 mmHg 90%
01:00 +15°C° 0 mm 1 mps 713 mmHg 90%
02:00 +15°C° 0 mm 1 mps 713 mmHg 90%
03:00 +15°C° 0 mm 1 mps 713 mmHg 90%
04:00 +14°C° 0 mm 1 mps 713 mmHg 89%
05:00 +16°C° 0 mm 1 mps 713 mmHg 86%
06:00 +18°C° 0 mm 1 mps 713 mmHg 82%
07:00 +19°C° 0 mm 1 mps 713 mmHg 79%
08:00 +21°C° 0 mm 1 mps 713 mmHg 72%
09:00 +23°C° 0 mm 1 mps 713 mmHg 65%
10:00 +25°C° 0 mm 1 mps 713 mmHg 58%
11:00 +26°C° 0 mm 1 mps 713 mmHg 54%
12:00 +27°C° 0 mm 1 mps 713 mmHg 51%
13:00 +29°C° 0 mm 1 mps 713 mmHg 47%
14:00 +29°C° 0 mm 2 mps 713 mmHg 47%
15:00 +29°C° 0 mm 2 mps 712 mmHg 47%
16:00 +29°C° 0 mm 2 mps 712 mmHg 47%
17:00 +28°C° 0.1 mm 2 mps 712 mmHg 58%
18:00 +26°C° 0.1 mm 2 mps 712 mmHg 69%
19:00 +24°C° 0.1 mm 1 mps 712 mmHg 80%
20:00 +23°C° 2 mm 1 mps 712 mmHg 84%
21:00 +21°C° 2 mm 1 mps 712 mmHg 89%
22:00 +19°C° 2 mm 1 mps 713 mmHg 93%
23:00 +19°C° 0.1 mm 1 mps 713 mmHg 94%

28 Junio, Lunes

Tiempo Temperatura Precipitaciones Viento Presión Humedad
00:00 +18°C° 0.1 mm 1 mps 713 mmHg 94%
01:00 +18°C° 0.1 mm 1 mps 712 mmHg 94%
02:00 +18°C° 0 mm 1 mps 712 mmHg 94%
03:00 +16°C° 0 mm 1 mps 712 mmHg 94%
04:00 +16°C° 0 mm 1 mps 712 mmHg 94%
05:00 +18°C° 0 mm 1 mps 713 mmHg 93%
06:00 +18°C° 0 mm 1 mps 713 mmHg 92%
07:00 +19°C° 0 mm 1 mps 713 mmHg 92%
08:00 +20°C° 0 mm 1 mps 714 mmHg 89%
09:00 +20°C° 0 mm 1 mps 714 mmHg 87%
10:00 +20°C° 0 mm 2 mps 714 mmHg 85%
11:00 +21°C° 0.1 mm 2 mps 714 mmHg 81%
12:00 +23°C° 0.1 mm 2 mps 714 mmHg 78%
13:00 +24°C° 0.1 mm 2 mps 714 mmHg 75%
14:00 +23°C° 0.7 mm 1 mps 714 mmHg 81%
15:00 +22°C° 0.7 mm 1 mps 714 mmHg 86%
16:00 +21°C° 0.7 mm 1 mps 714 mmHg 92%
17:00 +20°C° 1.3 mm 1 mps 714 mmHg 94%
18:00 +20°C° 1.3 mm 1 mps 715 mmHg 96%
19:00 +19°C° 1.3 mm 1 mps 715 mmHg 98%
20:00 +19°C° 0.6 mm 1 mps 715 mmHg 98%
21:00 +18°C° 0.6 mm 1 mps 715 mmHg 98%
22:00 +18°C° 0.6 mm 1 mps 715 mmHg 98%
23:00 +18°C° 0.4 mm 1 mps 715 mmHg 98%

29 Junio, Martes

Tiempo Temperatura Precipitaciones Viento Presión Humedad
00:00 +18°C° 0.4 mm 1 mps 714 mmHg 97%
01:00 +18°C° 0.4 mm 1 mps 714 mmHg 97%
02:00 +18°C° 0.3 mm 1 mps 714 mmHg 97%
03:00 +16°C° 0.3 mm 1 mps 714 mmHg 98%
04:00 +16°C° 0.3 mm 1 mps 714 mmHg 98%
05:00 +16°C° 0.1 mm 0 mps 714 mmHg 97%
06:00 +16°C° 0.1 mm 0 mps 714 mmHg 96%
07:00 +16°C° 0.1 mm 0 mps 714 mmHg 95%
08:00 +19°C° 0.1 mm 1 mps 714 mmHg 91%
09:00 +20°C° 0.1 mm 1 mps 714 mmHg 87%
10:00 +21°C° 0.1 mm 1 mps 714 mmHg 83%
11:00 +21°C° 0.3 mm 1 mps 714 mmHg 83%
12:00 +21°C° 0.3 mm 1 mps 714 mmHg 84%
13:00 +21°C° 0.3 mm 1 mps 714 mmHg 84%
14:00 +21°C° 0.7 mm 1 mps 714 mmHg 87%
15:00 +21°C° 0.7 mm 1 mps 714 mmHg 89%
16:00 +20°C° 0.7 mm 1 mps 714 mmHg 92%
17:00 +20°C° 0.8 mm 1 mps 714 mmHg 94%
18:00 +18°C° 0.8 mm 2 mps 714 mmHg 96%
19:00 +17°C° 0.8 mm 2 mps 715 mmHg 98%
20:00 +18°C° 0.6 mm 1 mps 715 mmHg 98%
21:00 +16°C° 0.6 mm 1 mps 715 mmHg 98%
22:00 +16°C° 0.6 mm 1 mps 716 mmHg 98%
23:00 +16°C° 0.1 mm 1 mps 716 mmHg 97%
Mostrar más

Necesitamos Su Consentimiento

Meteoprog y nuestros Proveedores de Servicios pueden almacenar y acceder a sus datos personales como cookies, identificadores de dispositivo u otras tecnologías similares de su dispositivo y procesar dichos datos para personalizar contenido y anuncios, además de ofrecer funciones de redes sociales y analizar el tráfico.

  • Almacenar y/o acceder a información en su dispositivo

    Se puede almacenar o acceder a cookies, identificadores de dispositivo u otra información de su dispositivo para los fines anteriormente indicados.

  • Anuncios y contenido personalizados, medición de anuncios y contenido, percepciones del público, y desarrollo de productos

    Los anuncios y el contenido pueden personalizarse en base a su perfil. Se pueden añadir más datos para personalizar mejor los anuncios y contenidos. Se puede medir el rendimiento de los anuncios y contenidos. Se puede obtener la percepción sobre el público que ha visto los anuncios y contenidos. Dichos datos pueden usarse para desarrollar o mejorar la experiencia del usuario, sistemas y software.

Al hacer clic en ‘Estoy De Acuerdo’ usted permitirá el uso de las cookies, identificadores de dispositivo, balizas web u otras tecnologías similares indicadas. Su configuración puede cambiarse desde el navegador de su dispositivo.

Para ciertos fines, los intereses legítimos pueden ser considerados por encima del consentimiento. Puede leer más sobre ello en nuestra Política de Privacidad y Cookies.